Location: Clayton (historical)
(34.0300°N, 118.0259°W)
Time: 20:23:36
(UTC+00:00)

Hubble Space Telescope - Visible Passes

Search period start: 22 January 2021 00:00
Search period end: 01 February 2021 00:00
Orbit: 536 x 539 km, 28.5° (Epoch: 22 January)

Date Brightness Start Highest point End Pass type
(mag) Time Alt. Az. Time Alt. Az. Time Alt. Az.
22 Jan 2.0 01:47:12 10° WSW 01:50:59 35° S 01:54:47 10° ESE visible
22 Jan 2.6 03:28:04 10° WSW 03:30:34 28° SW 03:30:34 28° SW visible
23 Jan 1.9 01:36:17 10° WSW 01:40:07 37° S 01:43:56 10° ESE visible
23 Jan 2.2 03:17:15 10° WSW 03:20:29 31° SSW 03:20:29 31° SSW visible
24 Jan 2.2 03:06:28 10° WSW 03:10:04 29° SSW 03:10:26 28° S visible
25 Jan 2.4 02:55:43 10° WSW 02:59:10 26° SSW 03:00:28 22° SSE visible
26 Jan 2.8 02:45:00 10° WSW 02:48:16 22° SSW 02:50:36 14° SSE visible
27 Jan 3.0 02:34:21 10° WSW 02:37:21 19° SSW 02:40:20 10° SSE visible
28 Jan 3.3 02:23:48 10° WSW 02:26:25 16° SSW 02:29:02 10° SSE visible
29 Jan 3.5 02:13:27 10° SW 02:15:29 13° SSW 02:17:31 10° S visible
30 Jan 3.8 02:03:34 10° SW 02:04:32 11° SSW 02:05:31 10° S visible
